Weather History for KFDK - October, 2012

Change the Weather History Date:

Saturday, October 27, 2012

  Actual Average (KHGR) Record (KHGR)
Temperature  
Mean Temperature 62 °F -  
Max Temperature 69 °F 58 °F 72 °F (2000)
Min Temperature 55 °F 40 °F 35 °F (2005)
Degree Days  
Heating Degree Days 3    
Growing Degree Days 12 (Base 50)    
Moisture  
Dew Point 55 °F    
Average Humidity 89    
Maximum Humidity 100    
Minimum Humidity 56    
Precipitation  
Precipitation 0.00 in - - ()
Sea Level Pressure  
Sea Level Pressure 29.99 in    
Wind  
Wind Speed 4 mph (NNE)    
Max Wind Speed 8 mph    
Max Gust Speed -    
Visibility 10 miles    
Events      
Averages and records for this station are not official NWS values.
T = Trace of Precipitation, MM = Missing Value Source: NWS Daily Summary

Daily Weather History Graph

Daily Weather History Graph

Search for Another Location

Airport or City:

Trip Planner

Search our weather history database for the weather conditions in past years. The results will help you decide how hot, cold, wet, or windy it might be!

Date:

Astronomy

Oct. 27, 2012 Rise Set
Actual Time 7:32 AM EDT 6:13 PM EDT
Civil Twilight 7:04 AM EDT 6:41 PM EDT
Nautical Twilight 6:33 AM EDT 7:12 PM EDT
Astronomical Twilight 6:02 AM EDT 7:43 PM EDT
Moon 4:58 PM EDT (10/27) 5:26 AM EDT (10/27)
Length of Visible Light 11h 36m
Length of Day
10h 40m
Waxing Gibbous, 96% of the Moon is Illuminated
Oct 27
Waxing Gibbous
Oct 29
Full
Nov 6
Last Quarter
Nov 13
New
Nov 20
First Quarter

Hourly Weather History & Observations

Time (EDT) Temp. Dew Point Humidity Pressure Visibility Wind Dir Wind Speed Gust Speed Precip Events Conditions
12:20 AM 59.0 °F 59.0 °F 100% 30.09 in 10.0 mi Calm Calm - N/A   Overcast
12:40 AM 59.0 °F 59.0 °F 100% 30.08 in 10.0 mi Calm Calm - N/A   Overcast
1:00 AM 59.0 °F 57.2 °F 94% 30.08 in 10.0 mi NNE 3.5 mph - N/A   Overcast
1:25 AM 59.0 °F 57.2 °F 94% 30.07 in 10.0 mi NE 3.5 mph - N/A   Overcast
2:05 AM 59.0 °F 57.2 °F 94% 30.06 in 10.0 mi NNE 3.5 mph - N/A   Overcast
2:25 AM 59.0 °F 57.2 °F 94% 30.05 in 10.0 mi NNE 3.5 mph - N/A   Overcast
2:50 AM 57.2 °F 57.2 °F 100% 30.04 in 10.0 mi NNE 3.5 mph - N/A   Overcast
3:10 AM 57.2 °F 57.2 °F 100% 30.04 in 10.0 mi North 3.5 mph - N/A   Overcast
3:30 AM 57.2 °F 57.2 °F 100% 30.03 in 10.0 mi NNE 3.5 mph - N/A   Overcast
3:50 AM 57.2 °F 57.2 °F 100% 30.03 in 10.0 mi NNE 3.5 mph - N/A   Overcast
4:15 AM 57.2 °F 57.2 °F 100% 30.03 in 10.0 mi NNE 4.6 mph - N/A   Overcast
4:35 AM 57.2 °F 57.2 °F 100% 30.02 in 10.0 mi NE 4.6 mph - N/A   Overcast
4:55 AM 57.2 °F 57.2 °F 100% 30.01 in 10.0 mi NNE 4.6 mph - N/A   Overcast
5:15 AM 55.4 °F 55.4 °F 100% 30.01 in 10.0 mi North 3.5 mph - N/A   Overcast
5:40 AM 57.2 °F 55.4 °F 94% 30.02 in 10.0 mi NNE 3.5 mph - N/A   Overcast
6:00 AM 57.2 °F 55.4 °F 94% 30.02 in 10.0 mi NE 3.5 mph - N/A   Overcast
6:20 AM 55.4 °F 55.4 °F 100% 30.02 in 10.0 mi NNE 3.5 mph - N/A   Overcast
6:40 AM 57.2 °F 55.4 °F 94% 30.02 in 10.0 mi North 4.6 mph - N/A   Overcast
6:50 AM 57.2 °F 55.4 °F 94% 30.02 in 10.0 mi North 3.5 mph - N/A   Overcast
6:52 AM 57.2 °F 57.2 °F 100% 30.02 in 10.0 mi NNE 4.6 mph - N/A   Overcast
7:52 AM 57.2 °F 55.4 °F 94% 30.02 in 10.0 mi Variable 3.5 mph - N/A   Mostly Cloudy
8:55 AM 60.8 °F 55.4 °F 82% 30.03 in 10.0 mi Variable 4.6 mph - N/A   Mostly Cloudy
9:53 AM 62.6 °F 51.8 °F 68% 30.03 in 10.0 mi ENE 6.9 mph - N/A   Mostly Cloudy
10:50 AM 66.2 °F 50.0 °F 56% 30.03 in 10.0 mi East 8.1 mph - N/A   Mostly Cloudy
11:50 AM 69.8 °F 53.6 °F 56% 30.01 in 10.0 mi East 8.1 mph - N/A   Mostly Cloudy
12:52 PM 69.8 °F 55.4 °F 60% 29.98 in 10.0 mi East 6.9 mph - N/A   Overcast
1:52 PM 68.0 °F 55.4 °F 64% 29.95 in 10.0 mi ENE 5.8 mph - N/A   Overcast
3:45 PM 66.2 °F 53.6 °F 64% 29.93 in 10.0 mi ENE 6.9 mph - N/A   Overcast
4:45 PM 66.2 °F 55.4 °F 68% 29.93 in 10.0 mi NE 6.9 mph - N/A   Overcast
5:45 PM 64.4 °F 55.4 °F 73% 29.93 in 10.0 mi NE 6.9 mph - N/A   Clear
6:46 PM 60.8 °F 55.4 °F 82% 29.92 in 10.0 mi NE 3.5 mph - N/A   Scattered Clouds
7:45 PM 60.8 °F 55.4 °F 82% 29.92 in 10.0 mi North 6.9 mph - N/A   Clear
9:15 PM 57.2 °F 53.6 °F 88% 29.92 in 10.0 mi NNE 4.6 mph - N/A   Scattered Clouds
9:35 PM 57.2 °F 53.6 °F 88% 29.92 in 10.0 mi North 5.8 mph - N/A   Scattered Clouds
9:55 PM 55.4 °F 53.6 °F 94% 29.92 in 7.0 mi North 5.8 mph - N/A   Clear
10:15 PM 55.4 °F 53.6 °F 94% 29.91 in 7.0 mi North 5.8 mph - N/A   Clear
10:40 PM 55.4 °F 53.6 °F 94% 29.92 in 7.0 mi NNE 5.8 mph - N/A   Clear
11:00 PM 55.4 °F 53.6 °F 94% 29.92 in 7.0 mi NE 4.6 mph - N/A   Clear
11:20 PM 55.4 °F 53.6 °F 94% 29.92 in 7.0 mi North 6.9 mph - N/A   Clear
11:45 PM 55.4 °F 53.6 °F 94% 29.91 in 7.0 mi NNE 5.8 mph - N/A   Clear